Weather in Starosel'ye

Russia / Kaluga Oblast     54°54′42″N   36°26′15″E
temp.,
°C
wind,
m/s
gust,
m/s
humid.,
%
clouds,
%
prec.,
mm/h
press.,
hPa
HPBL,
m
29 june, wed
wed2900:00+13e287031 0.0 1023173
03:00+11ene23744 0.0 102347
06:00+12ene257567 0.0 1023135
09:00+18ene345044 0.0 1023681
12:00+21ene2336100 0.0 10221492
15:00+23ene123377 0.0 10211954
18:00+22nne11444 0.0 10201625
21:00+15se22760 0.0 102039
30 june, thu
thu3000:00+12wsw11830 0.0 102010
03:00+11s00881 0.0 102110
06:00+13nw11805 0.0 102051
09:00+19n23565 0.0 1020634
12:00+22n34388 0.0 10191762
15:00+24n3433100 0.0 10182086
18:00+22nne3646100 0.0 1018554
21:00+15n22685 0.0 101930
1 july, fri
fri100:00+13n22730 0.0 102032
03:00+11n22790 0.0 102019
06:00+13nnw25773 0.0 1021135
09:00+20n36550 0.0 1020631
12:00+24n46434 0.0 10202283
15:00+25nne47365 0.0 10192505
18:00+24ne364630 0.0 10191011
21:00+16e22714 0.0 102115
2 july, sat
sat200:00+13ese11700 0.0 102211
03:00+12sw11765 0.0 102110
06:00+14w127331 0.0 102257
09:00+21nw13545 0.0 1020387
12:00+26wnw24465 0.0 10191120
15:00+29nnw464152 0.0 10172604
18:00+22nne246920 0.1 101790
21:00+20nw397416 0.1 1017160
3 july, sun
sun300:00+18nw228897 0.0 101730
03:00+16n228512 0.0 101717
06:00+18nnw248558 0.1 1018120
09:00+20n1385100 0.3 1018155
12:00+27nw23495 0.0 10171398
15:00+26w2259100 0.0 1017243
18:00+24nw2363100 0.0 101763
21:00+20wsw2281100 0.0 101819